Rio Vista Municipal (O88)
Rio Vista, CA
Field Elevation: 23
Lat: 38°11.60N  Long: 121°42.22W
CTAF/Unicom Freq: 122.7250
   
     For Weather-by-Phone, call (707) 374-5396
Weather Advisories
10/25/2014 03:27 Z
Altimeter 29.89" Hg
Wind 240° @ 4 KT
Gusts --
Visibility 10 SM
Ceiling CLR
Temperature 17° C (63° F)
Dewpoint 13° C (55° F)
Relative Humidity 80%
Density Altitude --
Condensation Altitude 2,000 feet
  Wind and Runways
Indicated Runway = 25
History
 
 
More Info
All DigiWx sites map
NOAA Forecast
 
Airport IQ 5010
(DUC) Stack Farm
(CA37) Dominican
 
about DigiWx
 
FAA Disclaimer: The data displayed is for advisory purposes only and is not to be used for flight planning or operations. For official data, please call (707) 374-5396 to hear the current automated AWOS voice message.
  METAR O88 250327Z AUTO 24004KT 10SM CLR 17/13 A2989